Theta_e
306 305 305 305 305 303 301 300 299 298 297 297 297 297 297 296 296 296 296 296 295 295 294 294 294 294 294 294 295 296 298 299 302 303 304 306 308 310 311 311 312 313 313
305 305 305 305 305 303 302 300 299 298 297 296 296 296 296 296 296 296 295 295 294 294 294 294 293 293 293 293 293 293 296 297 298 300 302 304 305 307 309 311 312 312 313
305 305 305 305 305 304 302 299 298 297 296 296 296 296 295 296 295 295 294 294 294 294 293 293 293 293 293 292 292 292 292 295 296 297 298 300 302 304 306 308 310 311 313
304 304 305 305 305 304 301 299 297 296 296 296 295 295 295 295 294 294 293 293 293 293 293 293 292 292 292 291 290 290 292 293 294 295 296 298 299 301 303 305 307 309 310
304 304 304 304 305 304 301 299 297 296 296 295 295 295 295 294 294 293 293 293 293 292 292 292 292 291 290 289 288 288 291 291 292 293 295 296 297 297 299 301 303 306 308
303 303 304 304 305 304 301 298 296 295 294 295 294 294 294 294 293 293 292 292 292 292 292 291 291 290 289 288 287 287 288 290 292 293 294 294 295 296 297 299 300 302 306
303 303 303 304 304 303 300 298 295 294 294 294 294 294 293 293 293 292 292 291 291 291 291 291 290 289 288 287 287 287 287 289 290 292 293 293 294 295 296 297 298 300 301
302 302 303 304 304 302 300 296 293 293 293 293 292 292 291 291 291 291 291 291 291 291 291 291 290 289 288 287 286 286 286 286 286 290 291 292 293 294 295 296 299 299 300
301 302 303 303 303 301 299 294 292 292 292 292 291 290 289 289 289 291 291 291 291 291 291 291 290 289 287 285 285 285 285 285 287 289 291 292 293 295 296 297 298 299 300
301 302 302 303 303 301 297 294 292 292 291 291 290 289 289 287 286 286 289 290 290 290 290 290 289 288 286 285 284 284 285 285 287 289 291 293 294 295 296 296 297 298 300
301 301 302 303 302 300 296 293 291 291 291 290 289 289 288 288 287 285 284 287 287 289 290 289 288 288 286 285 285 285 285 285 287 289 291 292 294 295 296 297 297 298 299
301 301 302 303 302 299 296 292 291 291 290 290 289 288 288 287 286 285 284 285 284 287 289 290 289 288 287 286 286 285 285 285 286 289 290 292 293 294 295 296 297 298 299
301 301 302 303 301 298 294 291 290 290 290 289 289 288 288 287 286 285 284 284 283 285 287 289 288 288 287 286 286 286 286 285 286 287 289 290 292 293 294 295 296 297 298
301 301 302 302 300 296 292 291 290 290 289 289 288 288 288 287 286 285 285 284 283 283 284 286 287 287 287 287 287 286 286 287 287 286 288 290 291 291 292 293 294 296 297
301 301 302 301 298 294 291 290 290 289 289 288 288 288 287 287 286 286 286 285 284 281 282 285 285 287 287 287 287 287 287 287 287 287 287 289 290 290 291 292 293 295 295
302 301 301 300 296 292 290 290 289 289 288 288 288 287 287 286 286 286 285 285 285 284 280 286 287 287 287 287 287 287 287 287 287 287 288 288 289 290 291 291 293 294 295
301 301 301 297 294 290 290 289 289 288 288 287 287 287 287 286 286 286 285 285 285 284 282 285 285 286 286 287 287 286 287 287 287 288 288 288 289 290 291 291 292 293 294
301 301 299 296 291 290 289 289 288 288 287 287 287 286 286 286 286 286 285 285 284 284 284 284 285 285 285 286 286 286 286 286 287 288 288 288 289 290 291 292 292 294 294
300 300 297 293 290 289 289 288 288 287 287 287 286 286 287 286 286 285 285 285 284 285 285 285 285 285 285 285 286 286 287 286 287 287 288 288 289 290 290 290 293 294 294
300 298 294 290 289 289 288 288 287 287 287 287 287 286 286 286 285 285 284 285 285 285 285 285 285 286 286 287 287 287 287 287 287 288 288 288 288 289 290 291 294 294 293
298 295 290 289 288 288 288 287 287 287 287 287 287 286 286 285 284 284 285 285 285 285 285 286 286 286 287 287 286 286 286 286 287 288 288 288 288 289 291 292 293 292 292
295 290 288 288 288 288 287 287 287 287 287 287 286 286 285 285 285 285 284 284 285 285 286 286 287 286 285 285 285 286 286 287 287 288 288 287 288 289 290 291 290 290 291
290 288 288 288 287 287 287 287 287 287 287 286 285 284 285 285 284 284 284 285 285 286 285 285 284 283 283 284 284 285 286 288 287 288 287 287 288 288 289 290 290 290 289
288 287 287 287 287 287 287 287 286 286 286 285 285 285 285 284 284 284 285 286 285 284 283 283 283 283 283 285 286 287 287 287 287 287 287 287 288 288 289 289 290 293 293
287 287 287 286 286 286 286 286 286 286 286 285 285 285 284 284 283 285 285 284 283 283 283 283 283 283 284 284 285 286 286 286 286 286 286 287 288 288 289 289 289 290 290
287 288 286 286 286 286 286 286 285 284 284 285 285 284 284 283 284 284 284 283 282 282 283 282 282 283 284 285 285 285 286 286 286 286 287 287 288 288 289 289 289 289 290
Wind_Speed
6 4 3 5 7 8 10 10 11 11 12 12 13 13 15 16 17 18 18 19 18 19 20 22 23 24 26 26 27 28 28 27 26 26 27 26 27 27 31 32 31 30 32
7 3 1 4 7 8 10 11 11 11 11 11 13 14 15 17 17 17 17 15 18 19 19 20 22 24 26 28 30 30 30 31 31 30 28 28 28 29 31 31 31 33 32
7 4 1 4 6 9 10 11 12 13 12 12 13 13 14 16 15 15 13 16 18 20 18 22 24 25 28 30 31 32 33 32 31 30 30 31 31 32 32 34 35 36 35
9 5 3 4 7 9 11 12 12 13 13 13 13 14 16 15 12 12 10 19 19 16 22 23 26 28 30 31 32 31 31 31 32 31 30 31 32 33 36 37 35 35 37
11 8 6 6 8 10 12 13 14 15 14 14 15 16 16 13 13 7 21 12 20 21 25 25 29 31 32 32 32 31 29 29 29 30 31 32 34 35 37 39 39 37 37
13 11 8 8 9 11 13 14 15 16 17 18 18 18 14 11 13 8 21 18 16 25 27 29 32 32 33 32 31 30 30 28 30 30 31 33 35 36 38 40 42 44 40
16 13 10 10 10 12 13 15 16 16 17 19 20 21 16 15 10 17 17 23 20 28 29 33 33 33 34 32 31 31 31 30 29 29 30 32 34 37 38 40 43 43 47
19 15 13 11 11 12 15 16 16 16 18 19 20 18 11 15 10 30 19 19 29 29 32 34 32 32 33 32 31 30 30 30 30 30 32 33 35 35 38 39 40 42 46
21 17 14 13 12 13 14 15 16 17 17 17 17 11 7 7 29 19 24 20 24 31 33 35 33 31 29 27 27 28 28 28 28 29 31 33 35 36 37 39 40 40 41
23 19 16 14 13 13 14 16 16 17 17 16 16 15 15 16 10 15 22 31 29 32 34 34 32 30 28 25 25 26 28 28 27 30 31 32 33 35 37 39 40 42 43
24 21 18 15 14 14 15 16 16 17 16 15 15 16 18 19 18 17 29 33 39 35 35 41 31 30 29 26 27 28 27 28 28 29 31 33 35 36 38 38 38 40 43
26 22 18 16 15 14 16 16 17 17 16 15 16 17 18 19 21 20 29 38 39 39 38 34 33 32 32 32 30 29 29 27 29 31 32 34 36 37 38 38 38 37 40
28 23 19 17 15 15 16 16 17 17 16 16 17 18 19 20 21 23 27 34 35 46 37 43 39 33 35 36 34 31 30 29 30 32 33 35 37 37 38 38 38 36 36
23 21 20 18 16 16 16 17 17 17 16 17 17 19 20 20 21 22 26 30 40 25 35 41 35 36 38 37 35 33 31 29 31 32 34 35 37 37 37 37 37 38 37
25 23 20 18 17 16 16 17 17 17 17 17 18 20 21 20 22 24 25 27 29 29 37 33 35 43 40 39 35 36 34 33 31 32 33 35 36 36 37 37 38 38 37
26 23 20 19 17 16 16 17 17 17 18 18 19 21 21 21 24 24 26 27 29 31 31 44 48 45 43 41 39 40 38 39 35 34 35 36 37 37 37 37 36 38 39
26 23 20 18 16 16 17 17 16 17 18 19 19 21 22 22 24 24 25 28 30 30 38 50 47 48 48 44 45 45 43 44 42 37 38 36 36 37 38 38 38 37 38
25 22 19 17 16 16 16 16 16 17 18 19 20 21 23 23 24 25 26 29 30 30 36 47 50 51 49 45 49 47 48 47 47 40 39 37 38 38 36 37 36 38 41
24 21 18 17 16 15 15 15 16 16 18 19 20 21 22 24 26 26 27 30 32 34 37 43 53 50 50 47 48 48 46 47 45 43 45 44 38 36 37 39 38 40 39
22 19 17 16 15 14 14 14 15 16 17 18 19 21 22 24 26 27 28 31 34 37 39 40 45 49 46 45 42 44 47 48 51 52 49 46 40 38 42 39 39 40 36
21 19 16 14 13 13 12 13 14 15 17 18 19 21 22 23 24 24 27 30 34 37 39 40 42 46 43 43 43 44 43 51 54 50 47 42 47 52 48 45 47 47 41
20 16 14 13 12 11 12 12 13 15 17 18 21 22 22 23 26 28 26 28 27 32 37 42 45 44 50 46 45 44 46 49 52 40 43 63 49 53 53 51 53 49 46
17 14 12 11 10 9 10 10 11 14 17 18 20 21 23 26 28 30 30 31 34 32 31 37 48 45 47 47 46 47 45 43 49 54 49 55 52 52 54 54 52 49 44
15 12 10 9 8 8 9 9 11 15 16 16 18 20 25 28 30 28 32 35 39 43 40 38 38 43 43 44 45 44 44 48 52 50 41 49 52 54 54 52 50 30 21
13 10 8 7 6 7 9 10 12 14 16 18 19 23 26 28 29 27 32 40 43 44 39 39 38 37 37 37 34 34 38 44 48 48 46 44 51 57 53 49 36 40 41
11 8 8 5 5 6 8 10 11 13 18 20 25 26 26 25 26 30 33 36 42 42 43 43 43 36 31 30 27 28 33 36 43 53 48 52 54 44 39 44 39 47 40
Wind_Direction
157 131 89 46 24 15 10 4 359 357 355 351 350 346 342 340 338 337 336 333 334 338 333 328 325 323 320 318 313 310 308 305 302 300 294 289 286 284 285 280 276 276 272
177 167 74 24 10 2 1 358 351 350 348 346 342 340 338 337 337 336 333 333 339 333 331 328 327 326 323 320 316 312 307 301 299 295 293 290 283 280 277 276 276 276 273
195 205 306 353 350 348 352 350 346 345 342 338 337 336 335 333 331 330 328 333 331 332 331 327 327 327 324 321 316 309 304 303 302 300 296 290 284 280 277 273 269 270 270
209 221 275 313 330 337 343 340 340 337 335 335 337 335 335 333 325 328 330 333 338 335 332 329 329 326 326 324 317 307 302 301 298 298 295 291 287 281 277 270 271 269 265
217 233 261 294 316 329 335 334 334 332 332 333 335 336 332 329 329 320 340 332 335 333 333 330 331 331 330 326 316 310 307 305 304 300 296 293 290 286 275 272 269 267 266
224 240 258 286 306 320 326 329 331 332 334 335 334 336 334 328 329 313 338 329 330 333 334 333 332 332 332 324 317 312 306 307 304 300 296 292 289 284 279 274 271 265 266
228 238 256 279 298 310 319 326 330 332 330 330 335 339 334 329 317 325 330 332 327 332 333 332 333 335 331 324 317 311 307 303 302 298 294 294 293 288 282 276 271 267 259
228 238 254 271 289 305 317 325 328 330 333 337 342 341 336 332 319 325 328 326 328 331 332 329 331 335 329 322 316 310 305 301 297 299 297 294 292 289 283 278 274 265 261
228 237 250 266 284 302 313 321 325 330 331 333 338 345 337 313 319 319 324 325 326 328 328 325 330 334 330 321 317 313 309 304 301 300 299 297 292 288 286 281 276 272 265
227 236 246 261 279 296 310 317 322 322 323 326 330 331 327 314 313 310 315 322 326 326 325 326 332 336 337 328 321 316 308 304 304 301 300 296 293 289 285 282 275 272 270
226 233 243 259 277 293 305 312 316 316 317 320 323 322 321 316 310 303 307 316 319 326 327 327 330 334 338 333 325 317 312 305 302 301 297 296 293 291 289 286 282 276 272
225 231 242 258 273 289 300 308 309 309 312 315 318 317 315 311 310 307 303 314 315 323 326 323 331 334 337 336 333 324 314 306 301 298 296 295 293 291 291 290 287 279 268
223 231 243 256 272 286 296 303 305 306 308 311 313 311 309 309 308 309 307 313 309 317 323 323 329 335 334 334 331 328 322 312 304 297 296 294 291 290 291 291 289 284 277
226 233 244 256 269 281 293 297 299 302 307 307 309 308 307 308 307 308 311 313 312 310 313 317 322 330 331 330 330 327 322 318 313 301 297 293 290 288 287 286 284 286 283
225 234 244 255 267 280 290 293 299 301 303 305 307 306 305 308 306 307 309 307 308 306 309 308 315 327 328 328 331 329 326 324 318 309 302 297 293 290 287 285 282 277 285
224 233 243 255 266 279 288 293 295 299 302 305 306 304 305 307 307 308 308 305 303 299 290 310 316 321 326 325 327 326 326 325 321 314 313 300 295 292 288 285 282 278 279
224 232 242 253 267 279 285 289 294 297 301 304 304 304 307 309 308 309 308 309 309 306 295 308 314 319 320 323 324 325 326 325 322 317 317 303 298 296 292 287 283 277 275
222 231 241 255 267 276 282 288 292 298 302 305 305 306 310 310 309 309 310 310 305 310 309 308 313 317 317 318 320 319 320 322 319 320 317 305 301 297 292 289 283 281 279
222 232 243 255 265 273 280 287 295 300 302 305 309 312 314 312 311 313 310 306 309 310 309 309 308 312 310 308 314 314 313 315 323 325 322 316 305 300 296 294 291 291 284
222 232 243 253 263 273 281 290 296 299 302 306 311 315 315 314 313 312 314 311 309 310 309 305 301 304 306 312 309 308 306 311 317 323 318 315 307 303 305 304 301 301 291
221 231 240 253 263 272 281 290 296 299 304 312 315 316 317 315 316 310 302 305 307 307 310 307 304 304 304 308 304 306 302 307 309 314 309 310 308 318 318 316 312 310 300
220 229 239 250 262 273 283 294 302 305 311 315 317 319 317 315 315 315 308 309 308 307 307 306 305 304 304 304 305 304 302 307 307 310 309 309 311 312 316 315 312 302 291
217 226 236 249 261 274 288 299 302 307 314 319 320 321 319 319 319 316 324 325 320 316 303 303 301 304 302 305 307 306 301 302 302 302 309 304 311 304 313 312 312 305 285
212 221 232 249 262 279 292 304 312 315 319 321 322 320 320 322 327 326 321 317 309 307 311 311 303 305 305 306 303 301 301 302 302 302 306 299 308 304 309 307 318 322 325
202 210 241 246 260 284 302 314 318 316 321 323 325 326 327 328 325 322 318 315 315 315 321 318 312 307 303 304 298 300 304 309 304 305 313 306 309 305 309 311 316 311 318
193 221 227 240 266 293 309 319 323 325 322 333 327 328 332 329 327 325 321 319 315 323 325 316 318 318 317 320 316 307 315 313 310 309 314 313 311 310 310 310 306 317 326